Flag for Germany Weather past 2 weeks in Stendal, Saxony-Anhalt, Germany

Now
53 °F

Overcast.


Feels Like: 50 °F
Forecast: 48 / 50 °F
Wind: 9 mph from West

Location: Magdeburg

Current Time: Dec 22, 2014 at 8:56:05 PM

Latest Report: Dec 22, 2014 at 8:00 PM


Visibility: 41 mi

Pressure: 29.89 "Hg

Humidity: 79%

Dew point: 46 °F

Location of StendalLocation

Historic Weather in Stendal — Graph

°F

Stendal temperature yesterday

Maximum temperature yesterday: 46 °F (at 11:00 PM)
Minimum temperature yesterday: 40 °F (at 9:00 AM)
Average temperature yesterday: 43 °F

Past Weeks' High & Low Weather Summary

 TemperatureHumidityPressure
High56 °F (Dec 18, 11:00 PM)97% (Dec 17, 7:00 PM)30.38 "Hg (Dec 17, 7:00 PM)
Low28 °F (Dec 15, 3:00 AM)64% (Dec 20, 11:00 AM)29.38 "Hg (Dec 12, 5:00 PM)
Average41 °F82%29.91 "Hg
* Reported Dec 7 8:00 PM — Dec 22 8:00 PM, Stendal, Weather by CustomWeather, © 2014

Note: Actual official high and low records may vary slightly from our data, if they occured in-between our weather recording intervals... More about our weather records

Advertising

Stendal weather history for previous 24 hours

 ConditionsComfort  
Time TempWeatherWind HumidityBarometerVisibility
8:00 PM
Dec 22
53 °FOvercast.9 mph79%29.89 "Hg40 mi
7:00 PM53 °FOvercast.9 mph78%29.89 "Hg34 mi
6:00 PM53 °FOvercast.9 mph76%29.88 "Hg43 mi
5:00 PM53 °FOvercast.8 mph75%29.87 "Hg37 mi
3:00 PM51 °FOvercast.10 mph79%29.85 "Hg19 mi
2:00 PM50 °FOvercast.9 mph85%29.86 "Hg37 mi
1:00 PM51 °FOvercast.8 mph77%29.88 "Hg37 mi
12:00 PM52 °FOvercast.9 mph73%29.88 "Hg37 mi
11:00 AM51 °FOvercast.9 mph74%29.89 "Hg43 mi
9:00 AM50 °FOvercast.9 mph78%29.91 "Hg31 mi
8:00 AM49 °FOvercast.8 mph84%29.91 "Hg7 mi
7:00 AM50 °FOvercast.8 mph78%29.92 "Hg37 mi
6:00 AM49 °FOvercast.7 mph78%29.92 "Hg37 mi
5:00 AM49 °FOvercast.8 mph80%29.92 "Hg43 mi
3:00 AM48 °FOvercast.7 mph79%29.97 "Hg43 mi
2:00 AM48 °FOvercast.8 mph79%29.97 "Hg40 mi
1:00 AM47 °FOvercast.9 mph78%30.00 "Hg43 mi
12:00 AM47 °FOvercast.7 mph79%30.02 "Hg43 mi
11:00 PM
Dec 21
46 °FOvercast.7 mph80%30.05 "Hg43 mi
9:00 PM44 °FOvercast.5 mph82%30.11 "Hg43 mi
8:00 PM43 °FOvercast.3 mph86%30.14 "Hg22 mi
Weather by CustomWeather, © 2014

See weather overviewHow to use our weather pages